Time,TemperatureF,DewpointF,PressureIn,WindDirection,WindDirectionDegrees,WindSpeedMPH,WindSpeedGustMPH,Humidity,HourlyPrecipIn,Conditions,Clouds,dailyrainin,SoftwareType,DateUTC
2013-02-10 00:15:00,37.0,28.8,30.03,South,180,12.0,23.0,72,0.00,SCT,SCT,0.00,WeatherDisplay:10.37,2013-02-10 06:15:00,
2013-02-10 00:45:00,37.0,28.8,30.03,South,180,12.0,12.0,72,0.00,SCT,SCT,0.00,WeatherDisplay:10.37,2013-02-10 06:45:00,
2013-02-10 01:15:00,36.0,30.7,30.03,South,170,16.0,16.0,81,0.01,-RA,-RA,0.01,WeatherDisplay:10.37,2013-02-10 07:15:00,
2013-02-10 01:45:00,36.0,30.7,30.03,South,170,16.0,16.0,81,0.00,-RA,-RA,0.01,WeatherDisplay:10.37,2013-02-10 07:45:00,
2013-02-10 02:15:00,36.0,31.9,30.01,SSE,160,10.0,16.0,85,0.01,-RA,-RA,0.02,WeatherDisplay:10.37,2013-02-10 08:15:00,
2013-02-10 02:45:00,36.0,31.9,30.00,SSE,160,9.0,10.0,85,0.00,-RA,-RA,0.02,WeatherDisplay:10.37,2013-02-10 08:45:00,
2013-02-10 03:15:00,37.0,32.9,29.99,SSE,160,16.0,16.0,85,0.01,-RA,-RA,0.03,WeatherDisplay:10.37,2013-02-10 09:15:00,
2013-02-10 03:45:00,36.0,33.9,29.96,SE,130,9.0,24.0,92,0.00,-RA,-RA,0.03,WeatherDisplay:10.37,2013-02-10 09:45:00,
2013-02-10 04:15:00,36.0,33.9,29.94,SE,140,12.0,12.0,92,0.05,-RA,-RA,0.08,WeatherDisplay:10.37,2013-02-10 10:15:00,
2013-02-10 04:45:00,36.0,33.9,29.94,SE,140,12.0,12.0,92,0.00,-RA,-RA,0.08,WeatherDisplay:10.37,2013-02-10 10:45:00,
2013-02-10 05:15:00,36.0,33.9,29.92,SE,140,8.0,12.0,92,0.06,-RA,-RA,0.14,WeatherDisplay:10.37,2013-02-10 11:15:00,
2013-02-10 05:45:00,36.0,33.9,29.91,SE,140,10.0,10.0,92,0.00,-RA,-RA,0.14,WeatherDisplay:10.37,2013-02-10 11:45:00,
2013-02-10 06:15:00,37.0,34.9,29.87,SE,130,8.0,10.0,92,0.00,-RA,-RA,0.14,WeatherDisplay:10.37,2013-02-10 12:15:00,
2013-02-10 06:45:00,37.0,33.8,29.86,SE,140,10.0,10.0,88,0.00,-RA,-RA,0.14,WeatherDisplay:10.37,2013-02-10 12:45:00,
2013-02-10 07:15:00,37.9,35.0,29.84,SSE,150,13.0,13.0,89,0.01,-RA,-RA,0.16,WeatherDisplay:10.37,2013-02-10 13:15:00,
2013-02-10 07:45:00,37.9,35.0,29.84,SSE,150,13.0,13.0,89,0.00,-RA,-RA,0.16,WeatherDisplay:10.37,2013-02-10 13:45:00,
2013-02-10 08:15:00,39.0,34.9,29.80,SSE,150,14.0,29.0,85,0.01,OVC,OVC,0.17,WeatherDisplay:10.37,2013-02-10 14:15:00,
2013-02-10 08:45:00,39.0,36.9,29.78,SE,140,15.0,29.0,92,0.00, +RA, +RA,0.17,WeatherDisplay:10.37,2013-02-10 14:45:00,
2013-02-10 09:15:00,39.0,36.9,29.79,SSE,150,12.0,26.0,92,0.17,-RA,-RA,0.34,WeatherDisplay:10.37,2013-02-10 15:15:00,
2013-02-10 09:45:00,39.9,36.9,29.75,SSE,160,15.0,26.0,89,0.00,OVC,OVC,0.34,WeatherDisplay:10.37,2013-02-10 15:45:00,
2013-02-10 10:15:00,41.0,38.9,29.73,SSE,160,17.0,30.0,92,0.16,OVC,OVC,0.50,WeatherDisplay:10.37,2013-02-10 16:15:00,
2013-02-10 10:45:00,43.0,39.7,29.70,SSE,160,18.0,32.0,88,0.00,OVC,OVC,0.50,WeatherDisplay:10.37,2013-02-10 16:45:00,
2013-02-10 11:15:00,43.0,39.7,29.67,SSE,160,16.0,35.0,88,0.02,-RA,-RA,0.52,WeatherDisplay:10.37,2013-02-10 17:15:00,
2013-02-10 11:45:00,43.0,39.7,29.67,SSE,160,16.0,35.0,88,0.00,-RA,-RA,0.52,WeatherDisplay:10.37,2013-02-10 17:45:00,
2013-02-10 12:15:00,44.1,40.7,29.62,South,170,23.0,44.0,88,0.02,-RA,-RA,0.54,WeatherDisplay:10.37,2013-02-10 18:15:00,
2013-02-10 12:45:00,45.0,40.7,29.58,South,170,24.0,44.0,85,0.00,-RA,-RA,0.54,WeatherDisplay:10.37,2013-02-10 18:45:00,
2013-02-10 13:15:00,45.0,41.9,29.57,South,170,22.0,44.0,89,0.00,OVC,OVC,0.54,WeatherDisplay:10.37,2013-02-10 19:15:00,
2013-02-10 13:45:00,45.0,41.9,29.57,South,170,22.0,37.0,89,0.00,OVC,OVC,0.54,WeatherDisplay:10.37,2013-02-10 19:45:00,
2013-02-10 14:15:00,46.0,43.8,29.54,South,170,20.0,37.0,92,0.00,OVC,OVC,0.54,WeatherDisplay:10.37,2013-02-10 20:15:00,
2013-02-10 14:45:00,46.9,43.9,29.53,South,180,22.0,36.0,89,0.00,OVC,OVC,0.54,WeatherDisplay:10.37,2013-02-10 20:45:00,
2013-02-10 15:15:00,46.9,44.7,29.52,South,180,24.0,41.0,92,0.00,-RA,-RA,0.54,WeatherDisplay:10.37,2013-02-10 21:15:00,
2013-02-10 15:45:00,46.9,44.7,29.52,South,180,24.0,41.0,92,0.00,-RA,-RA,0.54,WeatherDisplay:10.37,2013-02-10 21:45:00,
2013-02-10 16:15:00,46.9,44.7,29.51,South,180,23.0,41.0,92,0.00,OVC,OVC,0.54,WeatherDisplay:10.37,2013-02-10 22:15:00,
2013-02-10 16:45:00,46.9,44.7,29.51,South,180,23.0,35.0,92,0.00,OVC,OVC,0.54,WeatherDisplay:10.37,2013-02-10 22:45:00,
2013-02-10 17:15:00,48.0,45.8,29.50,South,180,18.0,35.0,92,0.00,OVC,OVC,0.54,WeatherDisplay:10.37,2013-02-10 23:15:00,
2013-02-10 17:45:00,48.0,45.8,29.50,South,180,18.0,18.0,92,0.00,OVC,OVC,0.54,WeatherDisplay:10.37,2013-02-10 23:45:00,
2013-02-10 18:15:00,48.9,45.8,29.51,South,190,17.0,30.0,89,0.00,OVC,OVC,0.54,WeatherDisplay:10.37,2013-02-11 00:15:00,
2013-02-10 18:45:00,48.9,45.8,29.51,South,190,17.0,30.0,89,0.00,OVC,OVC,0.54,WeatherDisplay:10.37,2013-02-11 00:45:00,
2013-02-10 19:15:00,48.0,45.8,29.52,SSW,200,21.0,30.0,92,0.00,BKN,BKN,0.54,WeatherDisplay:10.37,2013-02-11 01:15:00,
2013-02-10 19:45:00,48.0,45.8,29.52,SSW,200,17.0,17.0,92,0.00,SCT,SCT,0.54,WeatherDisplay:10.37,2013-02-11 01:45:00,
2013-02-10 20:15:00,48.0,44.9,29.54,SW,220,17.0,17.0,89,0.00,CLR,CLR,0.54,WeatherDisplay:10.37,2013-02-11 02:15:00,
2013-02-10 20:45:00,48.0,44.9,29.54,SW,220,17.0,17.0,89,0.00,CLR,CLR,0.54,WeatherDisplay:10.37,2013-02-11 02:45:00,
2013-02-10 21:15:00,48.0,34.8,29.56,WSW,240,21.0,33.0,60,0.00,CLR,CLR,0.54,WeatherDisplay:10.37,2013-02-11 03:15:00,
2013-02-10 21:45:00,48.0,34.8,29.56,WSW,240,21.0,33.0,60,0.00,CLR,CLR,0.54,WeatherDisplay:10.37,2013-02-11 03:45:00,
2013-02-10 22:15:00,48.0,32.6,29.58,WSW,250,20.0,33.0,55,0.00,OVC,OVC,0.54,WeatherDisplay:10.37,2013-02-11 04:15:00,
2013-02-10 22:45:00,48.0,32.6,29.58,WSW,250,20.0,33.0,55,0.00,OVC,OVC,0.54,WeatherDisplay:10.37,2013-02-11 04:45:00,
2013-02-10 23:15:00,46.0,30.8,29.59,WSW,250,22.0,46.0,55,0.00,OVC,OVC,0.54,WeatherDisplay:10.37,2013-02-11 05:15:00,
2013-02-10 23:45:00,46.0,30.8,29.59,WSW,250,22.0,46.0,55,0.00,OVC,OVC,0.54,WeatherDisplay:10.37,2013-02-11 05:45:00,